TIME,DELAY(SENSOR),PRES,T(CTD),SAL,OXYGEN,RAWTEMP,T(OPTODE),TCPHASE,FLUOR,BETA(BETA700),BETA(BETA412),BETA(BETA440),CDOM,C(CSC),ED(ED412.40),ED(ED444.00),ED(ED489.70),ED(ED554.30),LU(LU411.80),LU(LU443.40),LU(LU489.60),LU(LU554.10),COMP,TILTX,TILTX(TILTY),CHECK
1352755367,5806,497.5499877929687500,6.7132000923156740,34.1244010925293000,83.8109207153320300,596.4821777343750000,6.6978468894958500,48.4157791137695300,52,104,88,80,80,15182,2147749641,2147422509,2148006729,2147873179,2147628726,2147073115,2148243117,2147194843,2042,5,13,4221
1352755513,5807,484.6600036621094000,6.8207998275756840,34.1077995300293000,91.2663269042968800,592.9918212890625000,6.8104228973388670,47.5241508483886700,51,104,87,82,79,15181,2147748187,2147424036,2148004873,2147873316,2147628608,2147077952,2148244013,2147198848,379,4,12,59844
1352755622,5806,473.2999877929687500,7.0517001152038570,34.1001014709472660,98.8904037475586000,586.2954711914062000,7.0260891914367680,46.5972404479980500,51,107,88,79,76,15182,2147749211,2147418157,2148005284,2147873773,2147628370,2147074267,2148243757,2147199853,951,4,13,53915
1352755731,5808,462.1000061035156000,7.1736998558044430,34.0876007080078100,108.7565994262695300,582.3392944335938000,7.1533069610595700,45.5186996459960940,51,106,90,81,78,15182,2147747593,2147421769,2148001618,2147873929,2147627318,2147076041,2148247744,2147197824,535,4,12,56305
1352755848,5811,451.3999938964844000,7.1921000480651855,34.0839996337890600,112.4821014404296900,581.2872924804688000,7.1871128082275390,45.1308898925781250,51,104,88,80,77,15182,2147744320,2147421549,2148004534,2147872877,2147627638,2147080201,2148237531,2147197056,3322,4,13,33826
1352755990,5807,440.5899963378906000,7.4186000823974610,34.0807991027832000,120.3712005615234400,574.0444946289062000,7.4195861816406250,44.2510681152343750,52,105,87,81,77,15185,2147747501,2147419922,2148005970,2147870144,2147628909,2147076306,2148243675,2147196260,3035,4,13,17512
1352756134,5804,429.8900146484375000,7.6364002227783200,34.0830001831054700,127.1564025878906200,567.9321289062500000,7.6154160499572750,43.5163917541503900,51,101,91,79,76,15183,2147745069,2147422189,2148003657,2147872822,2147626368,2147076498,2148240877,2147201206,153,4,13,1531
1352756287,5812,419.1700134277344000,7.8341999053955080,34.0854988098144500,133.0104064941406200,561.7548828125000000,7.8129878044128420,42.8849105834960940,50,110,86,79,77,15183,2147741403,2147422290,2148003675,2147873691,2147622107,2147080941,2148239478,2147199085,34,4,13,1840
1352756462,5804,406.1700134277344000,8.0222997665405270,34.0889015197753900,139.0527038574218800,554.7639770507812000,8.0361938476562500,42.2370986938476560,50,108,90,80,76,15182,2147742866,2147421961,2148005010,2147870107,2147625060,2147089051,2148233609,2147203867,3546,4,13,51304
1352756582,5807,395.3500061035156000,8.3210000991821290,34.0932006835937500,146.6817016601562500,546.3319702148438000,8.3048706054687500,41.4479293823242200,50,106,83,79,76,15181,2147743104,2147421193,2148001069,2147873837,2147619008,2147089664,2148233773,2147199314,3510,4,13,43044
1352756704,5807,384.5899963378906000,8.5374002456665040,34.0882987976074200,151.0605010986328000,539.1948242187500000,8.5318355560302730,40.9678802490234400,50,106,87,80,75,15180,2147743076,2147421357,2148003821,2147870784,2147618112,2147088722,2148236096,2147202980,3400,4,13,25631
1352756835,5809,373.7000122070312500,8.9642000198364260,34.1007003784179700,160.3386993408203000,526.1339111328125000,8.9461307525634770,40.0099601745605500,50,104,88,79,74,15181,2147738706,2147417892,2148004352,2147871552,2147618230,2147088301,2148233435,2147203666,1359,4,13,56794
1352756977,5812,363.0100097656250000,9.3739004135131840,34.1138000488281250,175.0189971923828000,513.1057739257812000,9.3580865859985350,38.7025489807128900,50,107,88,82,72,15181,2147737572,2147421202,2148003757,2147872155,2147613942,2147095853,2148232731,2147200109,1570,4,13,59178
1352757122,5808,351.2000122070312500,9.9376001358032230,34.1259994506835940,186.4624023437500000,494.8913879394531000,9.9319753646850590,37.6057510375976560,49,107,86,79,72,15178,2147739446,2147421065,2148004416,2147872329,2147613952,2147098340,2148227876,2147202742,689,4,13,18887
1352757242,5812,340.7600097656250000,10.3191003799438480,34.1259994506835940,193.0373992919922000,482.9006958007812500,10.3085298538208000,36.9739494323730500,49,105,90,79,71,15175,2147734235,2147419556,2148002916,2147872539,2147611026,2147099657,2148223058,2147202779,1746,4,13,32736
1352757375,5812,329.5499877929687500,10.7693996429443360,34.1142997741699200,195.9481964111328000,468.3147888183594000,10.7653198242187500,36.5460395812988300,49,103,88,79,70,15180,2147738194,2147421284,2148004324,2147873481,2147609627,2147100141,2148216960,2147206290,2061,4,13,18906
1352757506,5807,318.3099975585937500,11.1260995864868160,34.1208000183105500,198.9087066650390600,457.3854980468750000,11.1067304611206050,36.1810188293457000,50,105,85,80,71,15175,2147736338,2147421248,2148011117,2147871616,2147605174,2147106340,2148224621,2147204699,1383,4,13,38998
1352757626,5808,307.3299865722656000,11.4555997848510740,34.1222000122070300,203.1551971435547000,446.2037048339844000,11.4553098678588870,35.7388381958007800,48,102,87,81,71,15177,2147733165,2147424713,2148015085,2147875648,2147603044,2147111954,2148224310,2147208585,2404,4,13,26302
1352757749,5808,296.3599853515625000,11.9723997116088870,34.1439018249511700,208.5175018310547000,429.6148986816406000,11.9711704254150390,35.1538200378418000,48,103,90,81,70,15179,2147730660,2147427190,2148018907,2147868864,2147601664,2147113718,2148221979,2147204836,3094,4,13,25377
1352757880,5807,286.2399902343750000,12.5968999862670900,34.1726989746093750,219.3778991699218800,410.1388854980469000,12.5750102996826170,34.2308006286621100,49,103,88,80,68,15180,2147725339,2147427181,2148016457,2147873280,2147600521,2147121801,2148216667,2147204388,2825,4,13,23877
1352758057,5806,273.4800109863281000,13.3155002593994140,34.2244987487793000,217.8363952636718800,383.1901855468750000,13.4076700210571290,33.8999290466308600,50,104,86,80,68,15177,2147723392,2147435035,2148039780,2147873782,2147592978,2147129453,2148226770,2147210861,3232,4,15,16851
1352758188,5808,262.2699890136719000,13.9078998565673830,34.2644996643066400,218.4851989746093800,365.5262145996094000,13.9518699645996100,33.5960006713867200,49,101,88,82,67,15177,2147723328,2147441261,2148057581,2147870208,2147593051,2147133467,2148234532,2147214665,3577,4,14,24037
1352758310,5809,251.1900024414062500,14.6021003723144530,34.3372001647949200,217.3802947998047000,343.0469970703125000,14.6428499221801760,33.3208084106445300,49,102,89,79,68,15173,2147722724,2147450212,2148089033,2147870747,2147590217,2147147629,2148240301,2147212324,3392,4,13,41375
1352758430,5809,239.7200012207031200,15.3814001083374020,34.4342994689941400,215.4259033203125000,318.8952026367187500,15.3836097717285160,33.0718116760253900,49,103,88,81,68,15171,2147719744,2147468516,2148128018,2147872566,2147586916,2147157083,2148257462,2147215853,2526,4,15,23015
1352758539,5805,229.2599945068359400,16.0172004699707030,34.5075988769531250,217.1914062500000000,298.8651123046875000,15.9969196319580080,32.6846389770507800,49,102,87,80,67,15170,2147723318,2147492434,2148177755,2147872256,2147587446,2147181202,2148278802,2147219483,3080,3,13,5786
1352758672,5805,218.3800048828125000,16.8034000396728500,34.6181983947753900,220.4662017822265600,270.7215881347656000,16.8574905395507800,32.1080207824707000,50,101,86,81,65,15169,2147725970,2147521142,2148250377,2147872786,2147583734,2147206454,2148309796,2147222866,990,3,13,53262
1352758836,5808,208.3000030517578000,17.7439994812011720,34.7596015930175800,221.3117980957031200,241.0498962402343800,17.7638893127441400,31.6486301422119140,49,103,88,79,66,15167,2147726500,2147564717,2148335195,2147873755,2147580992,2147238390,2148348635,2147225005,914,3,14,25882
1352759031,5806,198.4700012207031200,18.4829998016357420,34.8737983703613300,222.6490020751953000,218.5272979736328000,18.4516906738281250,31.2694892883300780,50,104,90,80,64,15164,2147733449,2147619346,2148455954,2147873974,2147580928,2147280301,2148406747,2147229312,1186,3,15,6473
1352759118,5808,194.3500061035156200,18.7998008728027340,34.9319000244140600,223.5314941406250000,207.5411071777343800,18.7872295379638670,31.0747795104980470,51,105,88,80,64,15166,2147738294,2147652708,2148518144,2147872950,2147584082,2147306624,2148438646,2147231744,829,3,15,50181
1352759194,5811,190.6100006103515600,19.0041007995605470,34.9664993286132800,224.0323944091797000,200.2292022705078000,19.0105800628662100,30.9500102996826170,50,105,87,80,64,15161,2147751478,2147676041,2148566537,2147873325,2147586998,2147327414,2148466733,2147232969,27,2,15,36015
1352759273,5808,186.6000061035156200,19.3110008239746100,35.0158996582031250,224.4138031005859400,190.3679962158203000,19.3118705749511720,30.7978096008300780,51,105,87,80,63,15155,2147757284,2147714377,2148636754,2147873216,2147590345,2147354532,2148502116,2147238198,3041,3,15,6018
1352759349,5806,182.7899932861328000,19.5223007202148440,35.0560989379882800,225.7911987304687500,184.0733947753906200,19.5042400360107420,30.6439990997314450,53,103,87,81,63,15161,2147771748,2147761545,2148726857,2147874285,2147592301,2147388022,2148549019,2147238592,3407,3,15,36679
1352759436,5807,178.4799957275390600,19.7681007385253900,35.0940017700195300,226.4297943115234400,176.4562072753906200,19.7370891571044920,30.5104999542236330,53,105,88,81,63,15157,2147785563,2147822272,2148845394,2147872786,2147599990,2147433234,2148610971,2147241270,762,3,14,30900
1352759523,5805,174.6699981689453000,19.9536991119384770,35.1276016235351560,227.1349029541015600,169.7890930175781200,19.9409599304199220,30.3866596221923830,55,104,86,80,62,15151,2147799853,2147876562,2148942866,2147873828,2147609197,2147467392,2148656859,2147250102,1830,3,15,39932
1352759613,5811,170.8500061035156200,20.0807991027832030,35.1482009887695300,227.9429931640625000,165.4927062988281200,20.0723705291748050,30.2899303436279300,56,104,90,80,62,15151,2147819465,2147941046,2149056676,2147873179,2147618102,2147515337,2148717220,2147254125,2308,3,15,36113
1352759722,5805,166.6999969482422000,20.1821002960205080,35.1609992980957000,228.6251068115234400,162.0818939208984400,20.1767196655273440,30.2113094329834000,57,104,89,80,63,15149,2147842349,2148009270,2149188315,2147875026,2147626797,2147565760,2148789586,2147258642,1997,2,16,11025
1352759831,5806,162.8699951171875000,20.2889995574951170,35.1736984252929700,228.9712066650390600,158.6287994384765600,20.2823791503906250,30.1486797332763670,58,106,89,81,62,15146,2147870692,2148099492,2149360310,2147877522,2147642322,2147623853,2148879689,2147263405,1681,2,15,52441
1352759939,5808,158.5700073242187500,20.3323001861572270,35.1764984130859400,229.1284942626953000,157.1580963134765600,20.3273906707763670,30.1217899322509770,58,104,86,81,62,15147,2147911323,2148211126,2149580306,2147875428,2147660004,2147702637,2148997238,2147271195,497,2,15,12384
1352760026,5807,154.5000000000000000,20.5440998077392580,35.1990013122558600,229.3296051025390600,150.3361053466797000,20.5362205505371100,30.0222492218017580,60,107,90,80,63,15141,2147857005,2147949641,2149010450,2147876662,2147633636,2147546066,2148718134,2147252946,3186,2,15,26628
1352760102,5809,150.5800018310547000,20.6291999816894530,35.2098999023437500,229.9898071289062500,147.6338043212890600,20.6189708709716800,29.9547500610351560,62,105,87,82,62,15140,2148017069,2148446061,2149979785,2147879478,2147708352,2147852105,2149200374,2147287058,2555,2,15,21161
1352760178,5806,146.4199981689453000,20.6823005676269530,35.2170982360839840,230.5245056152343800,145.7740020751953000,20.6759300231933600,29.9044303894042970,63,107,89,81,62,15139,2148083611,2148607286,2150265828,2147882550,2147743771,2147958646,2149342765,2147297179,2012,2,15,55234
1352760246,5807,142.4900054931640600,20.7914009094238280,35.2303009033203100,231.0664062500000000,142.7086029052734400,20.7698307037353500,29.8383598327636720,64,107,92,81,62,15137,2148165138,2148797604,2150591506,2147885394,2147784091,2148074304,2149498843,2147311177,2073,2,15,5383
1352760322,5808,138.0599975585937500,20.8405990600585940,35.2360992431640600,231.5635986328125000,140.5652008056640600,20.8354892730712900,29.7863502502441400,64,107,90,80,62,15134,2148289627,2149057307,2151038811,2147890678,2147837110,2148234322,2149727689,2147324397,3026,2,15,25791
1352760387,5808,134.1999969482422000,20.8931999206542970,35.2411003112793000,232.2015991210937500,138.9031982421875000,20.8864192962646500,29.7342491149902340,66,109,88,81,61,15133,2148415954,2149332260,2151518546,2147894738,2147903670,2148410038,2149967305,2147343908,3349,2,15,523
1352760452,5809,130.6000061035156200,20.9081993103027340,35.2428016662597660,232.5789031982422000,138.2713928222656200,20.9057807922363280,29.7077598571777340,67,108,90,81,60,15131,2148551405,2149593216,2151954541,2147901357,2147966454,2148575844,2150188333,2147361993,3543,2,15,9212
1352760528,5809,126.6299972534179700,21.0128993988037100,35.2507019042968750,232.7265930175781200,135.1082000732422000,21.0027294158935550,29.6597309112548830,69,107,87,81,62,15131,2148735734,2149919872,2152474093,2147911296,2148054747,2148774573,2150441417,2147384393,488,2,16,45792
1352760618,5809,122.6600036621093800,21.2005996704101560,35.2664985656738300,233.3498992919922000,129.0314941406250000,21.1890392303466800,29.5513191223144530,75,109,88,80,62,15128,2148949778,2150291757,2153059190,2147920045,2148154496,2148986889,2150707035,2147400173,591,2,15,30600
1352760716,5809,118.8099975585937500,21.3187999725341800,35.2765998840332000,234.2480926513672000,125.0914993286132800,21.3098907470703120,29.4580402374267580,79,107,90,81,61,15122,2149230555,2150750994,2153774546,2147937261,2148275401,2149243666,2151030500,2147427026,27,2,15,62460
1352760825,5807,115.0000000000000000,21.4209003448486330,35.2834014892578100,235.4862976074218800,121.7133026123046900,21.4135398864746100,29.3560390472412100,85,110,88,80,61,15115,2149578267,2151336173,2154674633,2147952630,2148429302,2149556224,2151410029,2147461824,524,2,15,30104
1352760935,5806,110.6500015258789000,21.5519008636474600,35.2812004089355500,237.3141021728515600,117.5590972900390600,21.5410499572753900,29.2172908782959000,85,114,92,83,61,15111,2150082669,2152088987,2155776448,2147982436,2148650614,2149949970,2151931785,2147504795,3250,2,15,53998
1352761022,5805,106.5999984741211000,21.6259002685546880,35.2803001403808600,239.1598052978515600,115.0731964111328100,21.6173706054687500,29.1002597808837900,87,115,88,82,60,15102,2150702948,2153004251,2157061165,2148016091,2148906477,2150397138,2152467574,2147553462,2843,3,15,17515
1352761109,5810,102.7799987792968800,21.7028007507324220,35.2883987426757800,239.9196014404297000,112.4483032226562500,21.6979808807373050,29.0319900512695300,91,116,91,82,62,15098,2151458240,2154070070,2158564891,2148061814,2149237101,2150930880,2153096795,2147614838,2735,2,15,10533
1352761198,5808,98.8600006103515600,21.7903995513916000,35.2995986938476560,239.8713073730468800,109.3475036621093800,21.7932300567626950,28.9947204589843750,98,114,90,82,61,15099,2152521865,2155605165,2160680886,2148131501,2149723428,2151710418,2154000777,2147703286,1965,2,16,34779
1352761252,5807,96.5800018310546900,21.9211006164550780,35.3017005920410160,240.3388061523437500,105.5898971557617200,21.9087009429931640,28.9253692626953120,106,116,91,82,59,15086,2153466075,2156980242,2162632000,2148192987,2150106422,2152344822,2154758144,2147773421,1568,3,16,59476
1352761306,5805,94.5800018310546900,21.9974994659423830,35.3037986755371100,241.0818023681640600,103.0653991699218800,21.9862995147705080,28.8596191406250000,107,119,89,83,61,15084,2153090825,2155949522,2160594486,2148160969,2149991881,2151918363,2154105682,2147724160,1298,2,15,37950
1352761360,5807,92.8000030517578100,22.0788002014160160,35.2849006652832000,241.5233001708984400,100.5028991699218800,22.0650901794433600,28.8069801330566400,109,119,91,83,60,15072,2150235282,2150969398,2152631899,2147976896,2148678994,2149116800,2150311414,2147407716,994,2,15,41452
1352761425,5807,91.2699966430664000,22.2085990905761720,35.2792015075683600,242.5093994140625000,96.2204971313476600,22.1968193054199220,28.7083091735839840,122,122,90,82,62,15055,2155778642,2159805202,2166063122,2148329453,2151007250,2153525001,2156080320,2147916123,104,2,16,20806
1352761536,5810,89.3600006103515600,22.5270996093750000,35.3017997741699200,244.3854980468750000,87.1668090820312500,22.4755096435546880,28.5102100372314450,129,125,92,84,60,15028,2157095588,2161409828,2167606747,2148379446,2151478848,2154014171,2156566848,2147973659,3421,2,15,24716
1352761623,5809,87.2699966430664000,22.6728000640869140,35.3044013977050800,246.8041992187500000,81.2334976196289000,22.6583099365234380,28.3290996551513670,127,126,93,85,60,15031,2158896219,2163802057,2170237385,2148490962,2152191387,2154847725,2157401892,2148080603,768,2,15,13508
1352761710,5807,85.4100036621093800,22.8062992095947270,35.2980003356933600,248.2855987548828000,76.6699676513671900,22.7989997863769530,28.2070999145507800,115,124,92,84,60,15039,2160635949,2165891364,2172360749,2148567853,2152927378,2155724553,2158328429,2148178221,277,2,15,61101
1352761832,5809,82.8199996948242200,22.8931007385253900,35.2947006225585940,249.7104949951172000,73.7834625244140600,22.8880290985107420,28.1093807220459000,103,125,94,83,60,15039,2164028891,2170048374,2176364461,2148748498,2154382884,2157473490,2160004342,2148362258,2588,2,16,59973
1352761886,5807,80.6800003051757800,23.0758991241455080,35.2969017028808600,249.7854003906250000,68.1678237915039000,23.0613307952880860,28.0364303588867200,98,126,93,84,60,15039,2166156114,2172505746,2178354313,2148860178,2155580425,2158903808,2161224649,2148501476,1725,2,16,12493
1352761940,5808,78.7399978637695300,23.4134006500244140,35.2862014770507800,249.8674926757812500,57.6348800659179700,23.3867492675781250,27.9023704528808600,91,127,92,85,59,15036,2169366235,2176565440,2182973275,2149089737,2156990464,2160762102,2163065078,2148695762,1076,2,16,54050
1352761994,5807,77.1999969482421900,23.6263999938964840,35.2822990417480500,250.7501983642578000,51.3073806762695300,23.5824699401855470,27.7862396240234380,90,130,91,87,58,15028,2171101376,2178290605,2184483949,2149202889,2157910939,2161849243,2164036288,2148811830,567,2,16,45301
1352762081,5806,75.5999984741211000,23.7101001739501950,35.2818984985351560,251.2902984619140600,48.6738281250000000,23.6639804840087900,27.7307300567626950,87,160,90,85,58,15035,2173006628,2180305334,2186286692,2149344585,2158898157,2163025206,2165106468,2148935140,109,2,16,62668
1352762192,5810,72.9599990844726600,23.8981990814209000,35.2896995544433600,251.6121978759765600,41.5826683044433600,23.8836307525634770,27.6298809051513670,80,127,92,85,60,15033,2177297856,2185058797,2190623524,2149678866,2161318573,2165824164,2167458770,2149201234,2912,2,16,54805
1352762257,5808,71.3099975585937500,24.1341991424560550,35.2855987548828100,251.4783020019531200,34.3401489257812500,24.1082191467285160,27.5464801788330080,81,126,94,85,60,15032,2180534098,2188825298,2194202075,2149941668,2163238390,2167945947,2169084132,2149396013,2546,2,16,45019
1352762510,5807,69.0400009155273400,24.6460990905761720,35.2668991088867200,249.8892059326172000,17.1731700897216800,24.6416301727294920,27.4038791656494140,76,126,93,84,58,15031,2186653138,2195571785,2200038820,2150421339,2168288182,2173808128,2173540416,2149876918,1791,1,16,41469
1352762575,5809,66.9000015258789000,24.7152996063232420,35.2473983764648440,248.7447967529297000,15.2146797180175780,24.7025794982910160,27.4287300109863280,74,124,91,87,54,15027,2190620132,2199571620,2203853257,2150745389,2170533357,2176372278,2175594112,2150094025,1159,2,16,59607
1352762629,5805,65.1399993896484400,24.7297000885009770,35.2431983947753900,247.7875061035156200,14.5318498611450200,24.7238407135009770,27.4613895416259770,74,123,94,85,55,15025,2194481819,2203907181,2208305773,2151302866,2172935204,2179105344,2177854473,2150394816,1237,2,16,15469
1352762694,5811,63.0900001525878900,24.7467994689941400,35.2416000366210940,246.7465972900390600,13.9253396987915040,24.7427196502685550,27.4987697601318360,74,123,89,85,58,15030,2199514550,2209298541,2213821750,2151790006,2175771968,2182455195,2180703798,2150745746,936,2,16,54574
1352762772,5809,60.4799995422363300,24.8421001434326170,35.2369003295898440,245.4929046630859400,10.5883102416992190,24.8466491699218750,27.5121803283691400,73,122,90,84,60,15024,2210171245,2220494454,2224725010,2152946102,2181429961,2188921709,2186075593,2151446528,833,1,16,32497
1352762826,5809,58.5299987792968750,25.2091007232666000,35.2345008850097660,243.8491058349609400,0.2733081877231598,25.1683101654052730,27.4574108123779300,72,123,94,85,60,15026,2215948050,2225452992,2228684214,2153678491,2185412726,2193478976,2189794889,2151934866,680,2,16,43727
1352762880,5805,57.4900016784668000,25.3852996826171880,35.2285995483398440,243.3701019287109400,-4.5105190277099610,25.3176994323730470,27.4198493957519530,68,124,94,84,58,15021,2220079195,2229450724,2232222793,2154014802,2188059922,2196484964,2192090084,2152196480,545,2,15,4619
1352763111,5806,55.0099983215332000,25.6187992095947270,35.2290992736816400,242.2342987060547000,-13.2509698867797850,25.5909996032714840,27.3627395629882800,66,124,91,86,59,15010,2224761444,2233448118,2234944338,2155137746,2191858742,2199052059,2192738285,2152471972,2504,2,16,46619
1352763165,5807,52.9500007629394500,26.0939998626709000,35.2328987121582000,239.8497009277343800,-25.0958690643310550,25.9621391296386720,27.3229103088378900,62,124,93,86,56,15020,2188292790,2188280621,2185153462,2150818898,2173105298,2174569106,2169712859,2149697938,2735,2,16,9605
1352763230,5810,51.1800003051757800,26.2238006591796880,35.2513008117675800,237.2985992431640600,-32.4821701049804700,26.1940307617187500,27.3459701538085940,62,130,95,84,55,15021,2175243520,2173517348,2170069229,2149578395,2165090194,2164612854,2160710070,2148705024,1842,2,16,39950
1352763350,5810,49.7400016784668000,26.2432003021240230,35.2556991577148440,235.1799926757812500,-33.8683815002441400,26.2376003265380860,27.4241199493408200,65,124,94,86,58,15023,2245138112,2255753197,2257271094,2159087113,2208727067,2217360813,2207447195,2154657289,2120,1,16,25497
1352763472,5805,47.1100006103515600,26.3288993835449220,35.2603988647460940,233.3916931152343800,-36.6182708740234400,26.3240509033203120,27.4714107513427730,62,123,92,85,59,15019,2248971620,2259354752,2260398747,2160744704,2218295881,2225806016,2212593892,2155495414,1891,1,17,22437
1352763537,5809,44.8400001525878900,26.3498001098632800,35.2644996643066400,232.7693023681640600,-37.3136901855468750,26.3459205627441400,27.4911804199218750,59,123,93,85,56,15022,2256510400,2267502025,2268859821,2163021632,2227784502,2234421796,2218092928,2156278116,1677,2,16,38256
1352763592,5819,42.6199989318847660,26.3505992889404300,35.2636985778808600,232.3574066162109400,-37.3755493164062500,26.3478698730468750,27.5092506408691400,59,121,92,86,53,15017,2264287698,2275971328,2277958171,2166902272,2238809252,2244777828,2225225709,2157830902,1793,1,16,58433
1352763646,5808,40.1500015258789060,26.3539009094238280,35.2654991149902340,232.2071075439453000,-37.5298614501953100,26.3527202606201170,27.5142993927001950,59,121,92,86,55,15015,2266823981,2277018422,2277837430,2168416969,2248309760,2253055478,2230322075,2158552009,1685,2,16,56538
1352763700,5809,37.6500015258789060,26.3644008636474600,35.2672996520996100,232.0531005859375000,-37.9708518981933600,26.3665904998779300,27.5158996582031250,58,121,93,83,55,15019,2287811382,2300328036,2303791012,2175869860,2270123876,2275421165,2247407661,2161598427,1365,1,16,50407